EW9926 Weather Reports


time (UTC)temp
C
wind
direction
speed
KPH
gust
KPH
rain 1hr
cm
rain 24hr
cm
rain mn
cm
humidity
%
barometer
mb
20260510142555 16 255 0.0 4.8 0.00 0.46 0.00 83 1013.0
20260510142054 16 234 1.6 4.8 0.00 0.46 0.00 83 1013.0
20260510141553 16 311 1.6 4.8 0.00 0.46 0.00 84 1013.0
20260510141051 16 285 1.6 4.8 0.00 0.46 0.00 85 1013.0
20260510140551 15 262 0.0 4.8 0.00 0.46 0.00 87 1012.9
20260510140049 15 262 1.6 4.8 0.00 0.46 0.00 87 1013.0
20260510135548 15 262 1.6 3.2 0.00 0.46 0.00 88 1012.9
20260510135047 15 220 1.6 3.2 0.00 0.46 0.00 87 1012.9
20260510134552 14 220 1.6 3.2 0.00 0.46 0.00 90 1012.8
20260510134045 14 206 0.0 3.2 0.00 0.46 0.00 90 1012.8
20260510133546 14 206 0.0 3.2 0.00 0.46 0.00 91 1012.8
20260510133042 13 206 0.0 3.2 0.00 0.46 0.00 91 1012.9
20260510132542 13 206 1.6 3.2 0.00 0.46 0.00 91 1013.0
20260510132040 13 172 0.0 4.8 0.00 0.46 0.00 92 1012.9
20260510131540 13 142 0.0 3.2 0.00 0.46 0.00 93 1012.9
20260510131039 13 142 0.0 3.2 0.00 0.46 0.00 94 1012.8
20260510130538 13 142 0.0 3.2 0.00 0.46 0.00 94 1012.9
20260510130037 13 142 0.0 3.2 0.00 0.46 0.00 94 1013.0
20260510125536 12 142 0.0 3.2 0.00 0.46 0.00 95 1013.1
20260510125036 12 142 0.0 1.6 0.00 0.46 0.00 95 1013.2
20260510124537 12 142 0.0 3.2 0.00 0.46 0.00 95 1013.2
20260510124033 12 142 0.0 3.2 0.00 0.46 0.00 95 1013.1
20260510123531 12 140 0.0 1.6 0.00 0.46 0.00 95 1013.0
20260510123032 12 140 0.0 1.6 0.00 0.46 0.00 95 1012.9
20260510122529 12 140 0.0 1.6 0.00 0.46 0.00 95 1012.7
20260510122030 12 140 0.0 3.2 0.00 0.46 0.00 95 1012.6
20260510121527 11 140 0.0 3.2 0.00 0.46 0.00 95 1012.6
20260510121026 11 140 1.6 3.2 0.00 0.46 0.00 95 1012.4
20260510120526 11 151 1.6 4.8 0.00 0.46 0.00 95 1012.4
20260510120023 11 151 1.6 4.8 0.00 0.46 0.00 95 1012.4
20260510115522 11 89 0.0 6.4 0.00 0.46 0.00 95 1012.3
20260510115019 11 110 1.6 6.4 0.00 0.46 0.00 95 1012.1
20260510114519 11 155 1.6 8.0 0.00 0.46 0.00 95 1011.9
20260510114018 11 150 1.6 6.4 0.00 0.46 0.00 95 1011.8
20260510113516 10 131 1.6 4.8 0.00 0.46 0.00 95 1012.0
20260510113020 10 148 1.6 6.4 0.00 0.46 0.00 95 1012.0
20260510112517 10 148 1.6 6.4 0.00 0.46 0.00 95 1011.9
20260510112018 10 158 3.2 4.8 0.00 0.46 0.00 95 1011.9
20260510111514 10 104 0.0 3.2 0.00 0.46 0.00 95 1012.0
20260510111014 10 140 0.0 3.2 0.00 0.46 0.00 95 1012.1
20260510110517 10 140 0.0 4.8 0.00 0.46 0.00 95 1012.1
20260510110017 10 140 1.6 4.8 0.00 0.46 0.00 95 1012.0
20260510105514 10 122 0.0 3.2 0.00 0.46 0.00 95 1012.0
20260510105013 10 122 0.0 1.6 0.00 0.46 0.00 95 1012.0
20260510104512 10 122 0.0 1.6 0.00 0.46 0.00 95 1011.9
20260510104012 10 122 0.0 0.0 0.00 0.46 0.00 95 1011.9
20260510103512 10 122 0.0 1.6 0.00 0.46 0.00 94 1011.8
20260510103012 10 122 0.0 1.6 0.00 0.46 0.00 95 1011.9
20260510102511 10 122 0.0 0.0 0.00 0.46 0.00 95 1011.8
20260510102010 10 122 0.0 0.0 0.00 0.46 0.00 94 1011.8
20260510101513 10 122 0.0 0.0 0.00 0.46 0.00 94 1011.7
20260510101011 10 122 0.0 1.6 0.00 0.46 0.00 94 1011.7
20260510100510 10 122 0.0 3.2 0.00 0.46 0.00 94 1011.7
20260510100012 10 122 0.0 3.2 0.00 0.46 0.00 94 1011.7
20260510095510 10 122 0.0 3.2 0.00 0.46 0.00 94 1011.6
20260510095009 10 122 0.0 1.6 0.00 0.46 0.00 94 1011.4
20260510094512 10 122 0.0 3.2 0.00 0.46 0.00 94 1011.5
20260510094009 10 122 0.0 3.2 0.00 0.46 0.00 94 1011.5
20260510093509 10 64 0.0 1.6 0.00 0.46 0.00 94 1011.6
20260510093010 10 64 0.0 1.6 0.00 0.46 0.00 94 1011.4
20260510092509 10 64 0.0 1.6 0.00 0.46 0.00 94 1011.2
20260510092009 10 64 0.0 3.2 0.00 0.46 0.00 94 1011.2
20260510091508 10 64 0.0 3.2 0.00 0.46 0.00 94 1011.1
20260510091008 10 64 0.0 1.6 0.00 0.46 0.00 94 1011.2
20260510090509 10 64 0.0 1.6 0.00 0.46 0.00 94 1011.4
20260510090009 10 64 0.0 3.2 0.00 0.46 0.00 94 1011.5
20260510085508 10 64 0.0 3.2 0.00 0.46 0.00 94 1011.4
20260510085007 10 64 0.0 1.6 0.00 0.46 0.00 94 1011.7
20260510084507 10 64 0.0 1.6 0.00 0.46 0.00 94 1011.6
20260510084003 10 64 0.0 1.6 0.00 0.46 0.00 95 1011.6
20260510083502 10 64 0.0 3.2 0.00 0.46 0.00 94 1011.6
20260510083108 10 64 0.0 3.2 0.00 0.46 0.00 95 1011.5
20260510082559 10 63 0.0 3.2 0.00 0.46 0.00 95 1011.7
20260510082059 10 64 0.0 3.2 0.00 0.46 0.00 94 1011.4
20260510081559 10 32 1.6 3.2 0.00 0.46 0.00 94 1011.7
20260510081058 10 109 0.0 3.2 0.00 0.46 0.00 94 1011.3
20260510080559 10 38 1.6 4.8 0.00 0.46 0.00 94 1011.6
20260510080100 10 320 0.0 4.8 0.00 0.46 0.00 94 1011.7
20260510075557 10 320 0.0 4.8 0.00 0.46 0.00 94 1011.2
20260510075100 9 330 3.2 4.8 0.00 0.46 0.00 94 1011.3
20260510074618 9 113 0.0 0.0 0.00 0.46 0.00 94 1010.8
20260510074056 9 113 0.0 0.0 0.00 0.46 0.00 94 1010.8
20260510073556 9 113 0.0 0.0 0.00 0.46 0.00 94 1010.7
20260510073055 10 112 0.0 0.0 0.00 0.46 0.00 94 1010.6
20260510072555 10 112 0.0 0.0 0.00 0.46 0.00 94 1010.7
20260510072058 10 112 0.0 0.0 0.00 0.46 0.00 94 1010.7
20260510071600 10 112 0.0 0.0 0.00 0.46 0.00 94 1010.7
20260510071056 10 113 0.0 0.0 0.00 0.46 0.00 94 1010.7
20260510070554 10 112 0.0 0.0 0.00 0.46 0.00 94 1010.8
20260510070054 10 112 0.0 0.0 0.00 0.46 0.00 94 1010.8
20260510065554 10 113 0.0 0.0 0.00 0.46 0.00 94 1010.9
20260510065054 9 112 0.0 0.0 0.00 0.46 0.00 94 1010.9
20260510064608 9 112 0.0 0.0 0.00 0.46 0.00 94 1010.9
20260510064051 9 113 0.0 0.0 0.00 0.46 0.00 94 1011.0
20260510063551 9 112 0.0 0.0 0.00 0.46 0.00 94 1010.9
20260510063100 9 112 0.0 0.0 0.00 0.46 0.00 94 1010.9
20260510062551 9 112 0.0 0.0 0.00 0.46 0.00 94 1010.8
20260510062050 9 112 0.0 0.0 0.00 0.46 0.00 94 1010.8
20260510061551 9 112 0.0 0.0 0.00 0.46 0.00 94 1010.6
20260510061051 8 112 0.0 0.0 0.00 0.46 0.00 94 1010.5
20260510060550 8 112 0.0 0.0 0.00 0.46 0.00 94 1010.4
20260510060056 8 112 0.0 0.0 0.00 0.46 0.00 93 1010.5
20260510055548 8 112 0.0 0.0 0.00 0.46 0.00 93 1010.5
20260510055048 8 112 0.0 0.0 0.00 0.46 0.00 93 1010.5
20260510054547 8 112 0.0 0.0 0.00 0.46 0.00 93 1010.6
20260510054046 8 112 0.0 0.0 0.00 0.46 0.00 93 1010.7
20260510053546 8 112 0.0 0.0 0.00 0.46 0.00 93 1010.6
20260510053046 8 112 0.0 0.0 0.00 0.46 0.00 93 1010.7
20260510052547 8 112 0.0 0.0 0.00 0.46 0.00 93 1010.7
20260510052046 8 112 0.0 0.0 0.00 0.46 0.00 93 1010.7
20260510051555 8 112 0.0 0.0 0.00 0.46 0.00 93 1010.7
20260510051044 8 112 0.0 0.0 0.00 0.46 0.00 93 1010.7
20260510050545 8 112 0.0 0.0 0.00 0.46 0.00 92 1010.8
20260510050043 8 112 0.0 0.0 0.00 0.46 0.00 92 1010.7
20260510045543 8 112 0.0 0.0 0.00 0.46 0.00 92 1010.8
20260510045042 9 112 0.0 0.0 0.00 0.46 0.00 92 1010.8
20260510044542 9 112 0.0 0.0 0.00 0.46 0.00 92 1010.9
20260510044043 9 112 0.0 0.0 0.00 0.46 0.00 92 1010.9
20260510043539 9 112 0.0 0.0 0.00 0.46 0.00 92 1010.8
20260510043046 9 112 0.0 0.0 0.00 0.46 0.00 92 1011.0
20260510042538 9 112 0.0 0.0 0.00 0.46 0.00 92 1011.0
20260510042038 9 112 0.0 0.0 0.00 0.46 0.00 92 1010.9
20260510041552 9 112 0.0 0.0 0.00 0.46 0.00 92 1011.0
20260510041036 9 112 0.0 0.0 0.00 0.46 0.00 92 1011.0
20260510040536 10 112 0.0 0.0 0.00 0.46 0.00 92 1010.9
20260510040033 10 112 0.0 0.0 0.00 0.46 0.00 92 1011.0
20260510035533 10 112 0.0 0.0 0.00 0.46 0.46 92 1010.9
20260510035033 10 112 0.0 0.0 0.00 0.46 0.46 92 1010.9
20260510034532 10 112 0.0 0.0 0.00 0.46 0.46 92 1010.9
20260510034031 10 112 0.0 0.0 0.00 0.46 0.46 92 1010.9
20260510033532 10 112 0.0 0.0 0.00 0.46 0.46 92 1010.8
20260510033030 10 112 0.0 0.0 0.00 0.46 0.46 92 1010.8
20260510032529 10 112 0.0 0.0 0.00 0.46 0.46 92 1010.8
20260510032028 10 112 0.0 0.0 0.00 0.46 0.46 92 1010.7
20260510031528 10 112 0.0 0.0 0.00 0.46 0.46 92 1010.7
20260510031028 10 112 0.0 0.0 0.00 0.46 0.46 92 1010.7
20260510030531 10 112 0.0 0.0 0.00 0.46 0.46 93 1010.7
20260510030027 10 112 0.0 0.0 0.00 0.46 0.46 93 1010.7
20260510025528 10 112 0.0 0.0 0.00 0.46 0.46 92 1010.8
20260510025027 10 112 0.0 0.0 0.00 0.46 0.46 92 1010.7
20260510024527 10 112 0.0 0.0 0.00 0.46 0.46 92 1010.6
20260510024026 10 112 0.0 0.0 0.00 0.46 0.46 92 1010.5
20260510023526 10 112 0.0 0.0 0.00 0.46 0.46 92 1010.5
20260510023026 10 112 0.0 0.0 0.00 0.46 0.46 92 1010.5
20260510022526 10 112 0.0 0.0 0.00 0.46 0.46 92 1010.5
20260510022025 10 112 0.0 0.0 0.00 0.46 0.46 92 1010.5
20260510021525 10 112 0.0 0.0 0.00 0.46 0.46 92 1010.5
20260510021024 10 112 0.0 0.0 0.00 0.46 0.46 92 1010.6
20260510020525 10 112 0.0 0.0 0.00 0.46 0.46 92 1010.5
20260510020024 10 112 0.0 0.0 0.00 0.46 0.46 92 1010.5
20260510015524 11 112 0.0 1.6 0.00 0.46 0.46 92 1010.5
20260510015024 10 112 0.0 1.6 0.00 0.46 0.46 92 1010.4
20260510014524 10 112 0.0 0.0 0.00 0.46 0.46 92 1010.5
20260510014023 10 112 0.0 1.6 0.00 0.46 0.46 92 1010.4
20260510013523 10 112 0.0 1.6 0.00 0.46 0.46 91 1010.5
20260510013023 10 112 0.0 0.0 0.00 0.46 0.46 91 1010.5
20260510012521 10 112 0.0 0.0 0.00 0.46 0.46 91 1010.3
20260510012021 11 112 0.0 0.0 0.00 0.46 0.46 91 1010.3
20260510011532 11 112 0.0 0.0 0.00 0.46 0.46 91 1010.3
20260510011020 11 112 0.0 0.0 0.00 0.46 0.46 91 1010.3
20260510010520 11 112 0.0 0.0 0.00 0.46 0.46 91 1010.2
20260510010030 11 112 0.0 0.0 0.00 0.46 0.46 91 1010.1
20260510005520 11 112 0.0 1.6 0.00 0.46 0.46 91 1010.1
20260510005020 11 112 0.0 3.2 0.00 0.46 0.46 91 1010.0
20260510004519 11 112 0.0 3.2 0.00 0.46 0.46 90 1010.1
20260510004022 11 112 1.6 3.2 0.00 0.46 0.46 90 1010.0
20260510003520 11 112 0.0 3.2 0.00 0.46 0.46 90 1009.9
20260510003019 11 112 0.0 0.0 0.00 0.46 0.46 90 1009.9
20260510002519 11 112 0.0 3.2 0.00 0.46 0.46 90 1009.7
20260510002018 11 112 0.0 3.2 0.00 0.46 0.46 90 1009.7
20260510001523 11 112 0.0 3.2 0.00 0.46 0.46 90 1009.6
20260510001018 12 136 1.6 4.8 0.00 0.46 0.46 90 1009.6
20260510000519 12 119 1.6 4.8 0.00 0.46 0.46 89 1009.6
20260510000018 12 151 0.0 3.2 0.00 0.46 0.46 89 1009.7
20260509235518 12 151 1.6 4.8 0.00 0.46 0.46 89 1009.7
20260509235018 12 147 0.0 4.8 0.00 0.46 0.46 89 1009.7
20260509234518 12 141 1.6 4.8 0.00 0.46 0.46 89 1009.7
20260509234017 12 133 1.6 4.8 0.00 0.46 0.46 89 1009.7
20260509233517 12 160 1.6 4.8 0.00 0.46 0.46 89 1009.8
20260509233017 12 159 1.6 4.8 0.00 0.46 0.46 88 1009.8
20260509232517 12 152 1.6 4.8 0.00 0.46 0.46 88 1009.8
20260509232017 12 131 1.6 6.4 0.00 0.46 0.46 88 1009.8
20260509231527 13 135 1.6 6.4 0.00 0.46 0.46 87 1009.7
20260509231016 13 154 0.0 4.8 0.00 0.46 0.46 87 1009.7
20260509230516 13 155 1.6 4.8 0.00 0.46 0.46 86 1009.6
20260509230018 13 158 1.6 4.8 0.00 0.46 0.46 86 1009.6
20260509225519 13 159 1.6 4.8 0.00 0.46 0.46 87 1009.6
20260509225015 13 159 1.6 3.2 0.00 0.46 0.46 86 1009.7
20260509224515 13 159 0.0 3.2 0.00 0.46 0.46 86 1009.8
20260509224015 13 159 0.0 4.8 0.00 0.46 0.46 85 1009.7
20260509223515 13 159 1.6 4.8 0.00 0.46 0.46 85 1009.7
20260509223016 13 5 1.6 3.2 0.00 0.46 0.46 84 1009.7
20260509222514 13 327 0.0 1.6 0.00 0.46 0.46 84 1009.7
20260509222014 13 327 0.0 1.6 0.00 0.46 0.46 86 1009.7
20260509221528 13 324 0.0 1.6 0.00 0.46 0.46 87 1009.7
20260509221015 13 324 0.0 3.2 0.00 0.46 0.46 87 1009.6
20260509220514 13 324 0.0 3.2 0.00 0.46 0.46 88 1009.6
20260509220014 13 324 0.0 1.6 0.00 0.46 0.46 88 1009.5
20260509215514 13 322 0.0 3.2 0.00 0.46 0.46 87 1009.6
20260509215013 13 322 0.0 3.2 0.00 0.46 0.46 88 1009.7
20260509214515 13 323 0.0 1.6 0.00 0.46 0.46 90 1009.6
20260509214013 13 323 0.0 1.6 0.03 0.46 0.46 89 1009.5
20260509213513 12 323 0.0 1.6 0.03 0.46 0.46 88 1009.5
20260509213013 12 322 0.0 0.0 0.03 0.46 0.46 89 1009.9
20260509212517 12 322 0.0 1.6 0.03 0.46 0.46 89 1009.9
20260509212015 12 322 0.0 1.6 0.03 0.46 0.46 89 1009.8
20260509211512 12 322 0.0 1.6 0.03 0.46 0.46 90 1009.8
20260509211012 12 322 0.0 1.6 0.03 0.46 0.46 90 1009.8
20260509210512 12 322 0.0 0.0 0.03 0.46 0.46 90 1009.7
20260509210015 12 322 0.0 0.0 0.03 0.46 0.46 90 1009.7
20260509205511 12 322 0.0 0.0 0.05 0.46 0.46 90 1009.8
20260509205011 12 322 0.0 0.0 0.05 0.46 0.46 90 1009.8
20260509204509 12 322 0.0 1.6 0.05 0.46 0.46 90 1009.8
20260509204009 12 322 0.0 1.6 0.03 0.43 0.43 90 1009.9
20260509203509 12 322 0.0 1.6 0.05 0.43 0.43 90 1009.6
20260509203008 12 322 0.0 0.0 0.05 0.43 0.43 90 1009.8
20260509202508 12 322 0.0 1.6 0.08 0.43 0.43 90 1009.7
20260509202008 12 322 0.0 1.6 0.10 0.43 0.43 90 1009.8
20260509201506 12 322 0.0 1.6 0.10 0.43 0.43 90 1009.9
20260509201005 12 322 0.0 1.6 0.13 0.43 0.43 90 1009.8
20260509200504 12 322 0.0 1.6 0.13 0.43 0.43 90 1009.9
20260509200004 12 322 0.0 1.6 0.13 0.43 0.43 90 1010.1
20260509195506 12 322 0.0 1.6 0.10 0.41 0.41 90 1010.1
20260509195001 12 322 0.0 1.6 0.10 0.41 0.41 90 1010.2
20260509194501 12 322 0.0 1.6 0.13 0.41 0.41 90 1010.2
20260509194100 12 322 0.0 3.2 0.15 0.41 0.41 90 1010.4
20260509193600 12 322 0.0 3.2 0.15 0.38 0.38 90 1010.5
20260509193126 12 322 0.0 1.6 0.15 0.38 0.38 90 1010.5
20260509192558 12 322 0.0 3.2 0.15 0.36 0.36 90 1010.8
20260509192101 12 322 1.6 3.2 0.13 0.33 0.33 90 1010.8
20260509191614 12 322 0.0 4.8 0.15 0.33 0.33 90 1010.8
20260509191057 12 322 0.0 4.8 0.13 0.30 0.30 90 1010.9
20260509190557 12 322 1.6 4.8 0.15 0.30 0.30 90 1010.9
20260509190112 12 322 0.0 3.2 0.15 0.30 0.30 91 1011.0
20260509185557 12 321 0.0 3.2 0.18 0.30 0.30 91 1011.0
20260509185057 12 321 0.0 3.2 0.18 0.30 0.30 90 1011.0
20260509184556 12 321 0.0 3.2 0.15 0.28 0.28 90 1011.0
20260509184055 12 321 1.6 3.2 0.15 0.25 0.25 90 1011.1
20260509183555 12 321 0.0 4.8 0.13 0.23 0.23 89 1011.2
20260509183055 12 321 1.6 4.8 0.13 0.23 0.23 89 1011.2
20260509182555 12 321 1.6 4.8 0.13 0.20 0.20 89 1011.2
20260509182055 12 321 1.6 4.8 0.13 0.20 0.20 89 1011.2
20260509181556 12 321 0.0 3.2 0.10 0.18 0.18 89 1011.2
20260509181055 12 321 0.0 3.2 0.10 0.18 0.18 89 1011.2
20260509180555 12 321 0.0 3.2 0.10 0.15 0.15 89 1011.3
20260509180057 12 321 0.0 1.6 0.10 0.15 0.15 89 1011.2
20260509175554 12 321 0.0 1.6 0.08 0.13 0.13 88 1011.2
20260509175054 12 321 0.0 1.6 0.08 0.13 0.13 88 1011.2
20260509174553 12 321 0.0 3.2 0.10 0.13 0.13 88 1011.1
20260509174055 12 321 1.6 3.2 0.08 0.10 0.10 87 1011.0
20260509173552 12 321 1.6 3.2 0.08 0.10 0.10 86 1010.8
20260509173058 13 270 0.0 3.2 0.10 0.10 0.10 87 1010.8
20260509172554 13 270 0.0 3.2 0.08 0.08 0.08 86 1010.8
20260509172052 13 268 0.0 3.2 0.08 0.08 0.08 86 1011.0
20260509171605 13 268 0.0 1.6 0.08 0.08 0.08 85 1011.0
20260509171051 13 268 0.0 1.6 0.08 0.08 0.08 85 1011.1
20260509170551 13 268 0.0 3.2 0.05 0.05 0.05 84 1011.1
20260509170051 13 268 0.0 3.2 0.05 0.05 0.05 83 1011.2
20260509165550 13 268 0.0 3.2 0.05 0.05 0.05 83 1011.1
20260509165049 13 268 0.0 4.8 0.05 0.05 0.05 82 1011.0
20260509164551 13 268 1.6 4.8 0.03 0.03 0.03 81 1011.1
20260509164051 14 268 1.6 3.2 0.03 0.03 0.03 80 1011.1
20260509163551 14 268 1.6 6.4 0.03 0.03 0.03 79 1011.3
20260509163055 15 249 1.6 6.4 0.00 0.00 0.00 77 1011.4
20260509162551 15 262 1.6 4.8 0.00 0.00 0.00 75 1011.4
20260509162048 15 262 1.6 6.4 0.00 0.00 0.00 73 1011.2
20260509161548 15 263 1.6 6.4 0.00 0.00 0.00 74 1011.2
20260509161047 15 293 3.2 6.4 0.00 0.00 0.00 73 1011.3
20260509160548 15 259 3.2 9.7 0.00 0.00 0.00 71 1011.5
20260509160048 15 265 3.2 9.7 0.00 0.00 0.00 72 1011.8
20260509155547 16 265 4.8 8.0 0.00 0.00 0.00 67 1011.7
20260509155047 16 263 3.2 8.0 0.00 0.00 0.00 68 1011.5
20260509154547 16 272 3.2 8.0 0.00 0.00 0.00 66 1011.5
20260509154046 16 263 3.2 6.4 0.00 0.00 0.00 67 1011.6
20260509153545 16 253 3.2 6.4 0.00 0.00 0.00 70 1011.5
20260509153046 16 254 0.0 6.4 0.00 0.00 0.00 70 1011.5
20260509152544 16 259 3.2 8.0 0.00 0.00 0.00 72 1011.7
20260509152043 15 261 1.6 8.0 0.00 0.00 0.00 71 1011.7
20260509151542 15 259 3.2 6.4 0.00 0.00 0.00 71 1011.6
20260509151041 16 266 3.2 4.8 0.00 0.00 0.00 73 1011.5
20260509150539 15 272 1.6 4.8 0.00 0.00 0.00 74 1011.6
20260509150039 15 272 1.6 4.8 0.00 0.00 0.00 74 1011.4
20260509145539 15 272 1.6 4.8 0.00 0.00 0.00 74 1011.4
20260509145037 15 251 1.6 6.4 0.00 0.00 0.00 75 1011.5
20260509144544 15 249 1.6 6.4 0.00 0.00 0.00 74 1011.5
20260509144035 15 259 1.6 6.4 0.00 0.00 0.00 75 1011.5
20260509143535 15 245 1.6 4.8 0.00 0.00 0.00 76 1011.4
20260509143035 15 139 0.0 3.2 0.00 0.00 0.00 77 1011.5